GW3137 Weather Reports


time (UTC)temp
C
wind
direction
speed
KPH
gust
KPH
rain 1hr
cm
rain 24hr
cm
rain mn
cm
humidity
%
barometer
mb
20240418170202 9 282 4.8 14.5 0.00 0.00 0.00 67 1026.1
20240418164702 9 274 4.8 9.7 0.00 0.00 0.00 67 1026.2
20240418164202 9 288 3.2 11.3 0.00 0.00 0.00 67 1026.2
20240418163703 9 341 3.2 11.3 0.00 0.00 0.00 67 1026.3
20240418163202 9 319 3.2 11.3 0.00 0.00 0.00 68 1026.3
20240418161703 8 345 4.8 14.5 0.00 0.00 0.00 70 1026.4
20240418161202 8 290 3.2 11.3 0.00 0.00 0.00 72 1026.5
20240418160703 8 267 1.6 4.8 0.00 0.00 0.00 73 1026.5
20240418160203 8 284 1.6 8.0 0.00 0.00 0.00 73 1026.5
20240418154703 7 337 4.8 4.8 0.00 0.00 0.00 76 1026.7
20240418154202 7 342 3.2 8.0 0.00 0.00 0.00 76 1026.7
20240418151702 6 31 1.6 4.8 0.00 0.00 0.00 80 1026.9
20240418151202 6 33 1.6 4.8 0.00 0.00 0.00 80 1026.9
20240418150703 5 40 1.6 4.8 0.00 0.00 0.00 81 1026.9
20240418150202 5 297 3.2 8.0 0.00 0.00 0.00 81 1027.0
20240418144703 5 21 3.2 8.0 0.00 0.00 0.00 79 1027.0
20240418144203 5 357 1.6 4.8 0.00 0.00 0.00 77 1027.1
20240418143703 5 17 1.6 4.8 0.00 0.00 0.00 79 1027.0
20240418143203 5 40 0.0 0.0 0.00 0.00 0.00 80 1027.0
20240418141703 3 74 0.0 0.0 0.00 0.00 0.00 83 1027.0
20240418141202 3 74 0.0 0.0 0.00 0.00 0.00 83 1027.0
20240418140703 3 74 0.0 1.6 0.00 0.00 0.00 83 1027.0
20240418140202 3 74 0.0 4.8 0.00 0.00 0.00 83 1027.0
20240418134702 3 74 1.6 3.2 0.00 0.00 0.00 84 1027.0
20240418134203 2 73 1.6 3.2 0.00 0.00 0.00 84 1027.0
20240418133703 2 55 1.6 4.8 0.00 0.00 0.00 84 1027.0
20240418133202 2 61 3.2 4.8 0.00 0.00 0.00 84 1026.9
20240418131703 2 70 3.2 4.8 0.00 0.00 0.00 85 1026.9
20240418131202 2 70 1.6 4.8 0.00 0.00 0.00 85 1026.9
20240418130203 2 76 0.0 0.0 0.00 0.00 0.00 84 1026.9
20240418124703 2 76 0.0 0.0 0.00 0.00 0.00 84 1026.9
20240418124203 2 76 0.0 0.0 0.00 0.00 0.00 84 1026.9
20240418123703 2 76 0.0 0.0 0.00 0.00 0.00 83 1026.9
20240418123203 2 76 0.0 0.0 0.00 0.00 0.00 83 1026.9
20240418121703 3 76 0.0 0.0 0.00 0.00 0.00 82 1027.0
20240418121202 3 76 0.0 0.0 0.00 0.00 0.00 82 1026.9
20240418120203 3 76 0.0 0.0 0.00 0.00 0.00 81 1027.0
20240418114703 3 76 0.0 0.0 0.00 0.00 0.00 79 1027.0
20240418113703 3 76 0.0 0.0 0.00 0.00 0.00 81 1027.1
20240418113203 3 76 0.0 0.0 0.00 0.00 0.00 80 1027.1
20240418111703 3 76 0.0 0.0 0.00 0.00 0.00 80 1027.1
20240418111202 3 76 0.0 0.0 0.00 0.00 0.00 79 1027.2
20240418110703 4 76 0.0 0.0 0.00 0.00 0.00 79 1027.2
20240418104202 4 76 0.0 0.0 0.00 0.00 0.00 78 1027.3
20240418103703 4 76 0.0 0.0 0.00 0.00 0.00 79 1027.3
20240418103203 3 76 0.0 0.0 0.00 0.00 0.00 78 1027.4
20240418101702 4 76 0.0 0.0 0.00 0.00 0.00 77 1027.4
20240418101204 4 76 0.0 0.0 0.00 0.00 0.00 77 1027.5
20240418100702 4 76 0.0 0.0 0.00 0.00 0.00 76 1027.5
20240418100203 4 76 0.0 0.0 0.00 0.00 0.00 77 1027.5
20240418094703 5 76 0.0 0.0 0.00 0.00 0.00 74 1027.5
20240418094203 5 76 0.0 0.0 0.00 0.00 0.00 75 1027.4
20240418093204 5 76 1.6 3.2 0.00 0.00 0.00 75 1027.4
20240418091203 5 76 1.6 1.6 0.00 0.00 0.00 74 1027.6
20240418090703 5 76 0.0 3.2 0.00 0.00 0.00 73 1027.6
20240418090202 5 76 1.6 4.8 0.00 0.00 0.00 73 1027.6
20240418084703 6 76 0.0 0.0 0.00 0.00 0.00 71 1027.8
20240418084202 6 76 0.0 3.2 0.00 0.00 0.00 70 1027.9
20240418083703 6 76 1.6 3.2 0.00 0.00 0.00 70 1027.9
20240418081703 6 67 1.6 3.2 0.00 0.00 0.00 69 1028.1
20240418081203 6 67 0.0 3.2 0.00 0.00 0.00 68 1028.1
20240418080703 7 67 1.6 3.2 0.00 0.00 0.00 68 1028.1
20240418080203 7 55 0.0 0.0 0.00 0.00 0.00 69 1028.1
20240418074703 7 55 0.0 0.0 0.00 0.00 0.00 70 1028.3
20240418074203 7 55 1.6 3.2 0.00 0.00 0.00 69 1028.4
20240418073703 7 55 0.0 0.0 0.00 0.00 0.00 69 1028.4
20240418073203 7 55 0.0 4.8 0.00 0.00 0.00 69 1028.4
20240418071703 7 55 1.6 3.2 0.00 0.00 0.00 68 1028.4
20240418071203 7 55 0.0 0.0 0.00 0.00 0.00 67 1028.5
20240418070703 7 55 0.0 0.0 0.00 0.00 0.00 67 1028.5
20240418070203 7 55 0.0 0.0 0.00 0.00 0.00 66 1028.6
20240418064703 7 55 0.0 0.0 0.00 0.00 0.00 65 1028.6
20240418064203 8 55 0.0 0.0 0.00 0.00 0.00 64 1028.6
20240418063703 8 55 0.0 0.0 0.00 0.00 0.00 64 1028.7
20240418061703 8 55 0.0 0.0 0.00 0.00 0.00 61 1028.8
20240418060704 8 55 0.0 3.2 0.00 0.00 0.00 61 1028.8
20240418060203 8 55 1.6 3.2 0.00 0.00 0.00 61 1028.8
20240418054704 9 55 1.6 3.2 0.00 0.00 0.00 61 1028.8
20240418053203 8 38 0.0 0.0 0.00 0.00 0.00 60 1028.8
20240418051703 9 38 0.0 0.0 0.00 0.00 0.00 58 1028.7
20240418051203 9 38 0.0 0.0 0.00 0.00 0.00 58 1028.8
20240418050703 9 38 0.0 0.0 0.00 0.00 0.00 58 1028.8
20240418044703 10 34 0.0 3.2 0.00 0.00 0.00 55 1028.9
20240418044203 10 34 1.6 1.6 0.00 0.00 0.00 54 1028.9
20240418043703 10 34 0.0 0.0 0.00 0.00 0.00 53 1028.9
20240418043203 10 34 0.0 0.0 0.00 0.00 0.00 52 1028.8
20240418041703 10 33 0.0 0.0 0.00 0.00 0.00 49 1028.8
20240418041203 10 34 1.6 3.2 0.00 0.00 0.00 49 1028.8
20240418040704 10 33 1.6 3.2 0.00 0.00 0.00 49 1028.8
20240418040203 11 33 0.0 3.2 0.00 0.00 0.00 48 1028.8
20240418034203 11 0 3.2 8.0 0.00 0.00 0.00 49 1028.7
20240418033703 11 22 0.0 3.2 0.00 0.00 0.00 49 1028.7
20240418033203 12 17 0.0 4.8 0.00 0.00 0.00 50 1028.7
20240418031703 12 41 1.6 4.8 0.00 0.00 0.00 49 1028.6
20240418030703 12 25 1.6 8.0 0.00 0.00 0.00 47 1028.7
20240418030203 13 359 1.6 11.3 0.00 0.00 0.00 46 1028.6
20240418024704 13 353 3.2 4.8 0.00 0.00 0.00 43 1028.5
20240418024203 13 294 3.2 8.0 0.00 0.00 0.00 42 1028.6
20240418023203 14 134 3.2 16.1 0.00 0.00 0.00 41 1028.5
20240418021703 15 344 3.2 12.9 0.00 0.00 0.00 40 1028.6
20240418021203 15 324 3.2 8.0 0.00 0.00 0.00 40 1028.6
20240418020703 15 288 3.2 8.0 0.00 0.00 0.00 40 1028.6
20240418020203 15 310 4.8 19.3 0.00 0.00 0.00 40 1028.7
20240418014203 15 2 6.4 14.5 0.00 0.00 0.00 40 1028.8
20240418013703 15 290 3.2 16.1 0.00 0.00 0.00 39 1028.8
20240418013203 16 272 3.2 11.3 0.00 0.00 0.00 37 1028.8
20240418011704 16 283 4.8 16.1 0.00 0.00 0.00 37 1028.9
20240418011204 16 277 3.2 12.9 0.00 0.00 0.00 37 1028.9
20240418010703 16 309 3.2 14.5 0.00 0.00 0.00 37 1028.9
20240418010203 16 291 3.2 12.9 0.00 0.00 0.00 37 1029.0
20240418004703 16 281 3.2 4.8 0.00 0.00 0.00 36 1029.1
20240418004203 16 20 6.4 14.5 0.00 0.00 0.00 36 1029.2
20240418003704 17 294 1.6 11.3 0.00 0.00 0.00 37 1029.2
20240418001704 16 321 3.2 16.1 0.00 0.00 0.00 34 1029.2
20240418001204 17 337 4.8 14.5 0.00 0.00 0.00 34 1029.3
20240418000204 16 328 4.8 16.1 0.00 0.00 0.00 35 1029.4
20240417234704 18 357 3.2 19.3 0.00 0.00 0.00 32 1029.5
20240417234204 17 1 4.8 19.3 0.00 0.00 0.00 33 1029.5
20240417233704 17 359 4.8 12.9 0.00 0.00 0.00 33 1029.5
20240417233204 17 305 4.8 20.9 0.00 0.00 0.00 34 1029.6
20240417231703 16 293 8.0 16.1 0.00 0.00 0.00 33 1029.6
20240417231203 16 266 4.8 12.9 0.00 0.00 0.00 32 1029.6
20240417230703 17 11 4.8 9.7 0.00 0.00 0.00 33 1029.7
20240417230203 16 338 8.0 14.5 0.00 0.00 0.00 32 1029.8
20240417224704 16 284 8.0 12.9 0.00 0.00 0.00 32 1029.9
20240417224204 17 348 6.4 16.1 0.00 0.00 0.00 30 1030.0
20240417223703 16 347 4.8 16.1 0.00 0.00 0.00 32 1029.9
20240417223203 16 17 8.0 20.9 0.00 0.00 0.00 31 1030.0
20240417220204 15 285 9.7 19.3 0.00 0.00 0.00 37 1030.1
20240417214703 15 270 4.8 22.5 0.00 0.00 0.00 39 1030.3
20240417213704 15 280 8.0 16.1 0.00 0.00 0.00 38 1030.4
20240417213204 15 3 6.4 19.3 0.00 0.00 0.00 39 1030.4
20240417211704 15 348 6.4 16.1 0.00 0.00 0.00 40 1030.5
20240417210703 15 284 6.4 16.1 0.00 0.00 0.00 43 1030.6
20240417210204 15 280 6.4 20.9 0.00 0.03 0.00 42 1030.7
20240417204704 13 285 4.8 16.1 0.00 0.03 0.00 46 1030.7
20240417204203 13 279 9.7 19.3 0.00 0.03 0.00 44 1030.7
20240417203704 13 340 4.8 14.5 0.00 0.03 0.00 48 1030.8
20240417203203 13 254 8.0 19.3 0.00 0.03 0.00 46 1030.8
20240417201204 13 322 9.7 19.3 0.00 0.03 0.00 47 1031.0
20240417200704 13 332 8.0 14.5 0.00 0.03 0.00 49 1031.1
20240417200205 13 292 4.8 16.1 0.00 0.03 0.00 52 1031.1
20240417193703 12 297 4.8 16.1 0.00 0.03 0.00 56 1031.4
20240417193204 12 294 4.8 20.9 0.00 0.03 0.00 56 1031.4
20240417191704 12 319 6.4 14.5 0.00 0.03 0.00 57 1031.7
20240417191204 11 313 4.8 19.3 0.00 0.03 0.00 57 1031.8
20240417190704 11 283 3.2 8.0 0.00 0.03 0.00 58 1031.8
20240417184704 11 282 6.4 19.3 0.00 0.03 0.00 59 1031.9
20240417184204 11 304 8.0 14.5 0.00 0.03 0.00 60 1031.9
20240417183704 10 332 9.7 16.1 0.00 0.03 0.00 61 1031.9
20240417183204 10 302 4.8 16.1 0.00 0.03 0.00 60 1032.0
20240417181702 10 282 3.2 11.3 0.00 0.03 0.00 60 1032.1
20240417181202 10 301 4.8 11.3 0.00 0.03 0.00 59 1032.2
20240417180702 10 355 3.2 12.9 0.00 0.03 0.00 61 1032.2
20240417180203 10 292 4.8 12.9 0.00 0.03 0.00 62 1032.2
20240417174702 10 0 4.8 8.0 0.00 0.03 0.00 63 1032.1
20240417174203 10 350 3.2 8.0 0.00 0.03 0.00 65 1032.1
20240417173703 9 236 3.2 8.0 0.00 0.03 0.00 65 1032.1
20240417173202 9 271 6.4 12.9 0.00 0.03 0.00 65 1032.2